Location: Hamilton
(37.7830°S, 175.2830°E)
Time: 22:39:54
(UTC+13:00)

Nimbus 7 Rocket - Pass Details

Date: 24 January 2019
Orbit: 922 x 966 km, 99.5° (Epoch: 15 February)

Event Time Altitude Azimuth Distance (km) Brightness Sun altitude
Exits shadow 22:38:54 36° 36° (NE) 1,442 4.9 -20.1°
Maximum altitude 22:41:22 68° 107° (ESE) 1,011 4.4 -20.5°
Drops below altitude 10° 22:47:20 10° 189° (S) 2,691 7.6 -21.2°
Sets 22:49:49 0° 191° (S) 3,649 8.5 -21.6°
